Regional Weather Roundup
Issued by NWS

Home | Current Version | Previous Version | Text Only | Print | Product List | Glossary Off
Versions: 1 2 3 4 5 6 7 8 9 10 11 12 13 14 15 16 17 18 19 20 21 22 23 24 25 26 27 28 29 30 31 32 33 34 35 36 37 38 39 40 41 42 43 44 45 46 47 48 49 50

000
ASUS43 KLOT 080403
RWRIL

ILLINOIS REGIONAL WEATHER ROUNDUP
NATIONAL WEATHER SERVICE CHICAGO/ROMEOVILLE IL
1000 PM CST WED DEC 07 2016

NOTE: "FAIR" INDICATES FEW OR NO CLOUDS BELOW 12,000 FEET WITH NO
SIGNIFICANT WEATHER AND/OR OBSTRUCTIONS TO VISIBILITY.

* THESE STATIONS ARE NOT UNDER NWS QUALITY CONTROL. THEY ALSO MAY NOT
  REPORT WEATHER SUCH AS PRECIPITATION OR FOG.

ILZ001-002-007-009-015-016-024-080500-
NORTHWEST ILLINOIS

CITY           SKY/WX    TMP DP  RH WIND       PRES   REMARKS
MOLINE         PTCLDY    23  12  62 W18G24    30.25R WCI   9
STERLING*      CLOUDY    23  16  74 W20       30.20R WCI   8
SAVANNA*       CLOUDY    24  14  65 W17       30.19S WCI  11
$$

ILZ003-004-008-010-011-017-018-080500-
NORTH CENTRAL ILLINOIS

CITY           SKY/WX    TMP DP  RH WIND       PRES   REMARKS
ROCKFORD       FLURRIES  24  14  65 W13G23    30.17R WCI  12
FREEPORT*      CLOUDY    23  14  70 W16       30.16S WCI   9
ROCHELLE*      FLURRIES  23  17  77 W16       30.17F WCI  10
$$

ILZ005-006-012>014-019>023-080500-
NORTHEAST ILLINOIS

CITY           SKY/WX    TMP DP  RH WIND       PRES   REMARKS
CHICAGO-OHARE  CLOUDY    23  14  68 W18G28    30.14S WCI   9
CHICAGO-MIDWAY CLOUDY    24  13  62 W16G31    30.16S WCI  11
AURORA         CLOUDY    24  17  74 W20       30.16S WCI  10
LANSING*       CLOUDY    23  17  77 W21G28    30.17R WCI   8
WAUKEGAN       CLOUDY    22  13  68 W10G23    30.10S WCI  11
DUPAGE AIRPORT CLOUDY    23  14  68 W16G24    30.14S WCI  10
KANKAKEE*      CLOUDY    26  17  68 W16G23    30.20R WCI  13
WHEELING       CLOUDY    23  13  65 W16G26    30.15R WCI  10
MORRIS*        CLOUDY    25  17  74 W20       30.19R WCI  10
NORTHERLY ISL    N/A     24  15  68 W16         N/A  WCI  11
$$

LMZ740>746-080500-
SOUTHERN LAKE MICHIGAN

STATION/POSITION SKY/WX   TEMP    WIND        PRES    VSBY  WAVE
                          AIR SEA DIR/SP/G                  HT/PER
                          (F)     (DEG/KT/KT) (MB)    (MI)  (FT/S)
HARRISON CRIB              24     280/ 25/ 28   N/A
BURNHAM HARBOR             24     240/ 14/ 20   N/A
CALUMET HARBOR             23     260/  8/ 13 1020.4R
BURNS HARBOR               26     270/ 22/ 28 1020.7F
MICHIGAN CITY              26     240/ 27/ 31   N/A
$$

ILZ025>027-034>036-040-047-049-050-058-095>099-080500-
WEST-CENTRAL ILLINOIS

CITY           SKY/WX    TMP DP  RH WIND       PRES   REMARKS
QUINCY         CLEAR     23  12  62 W13       30.33R WCI  11
GALESBURG*     MOCLDY    21  15  77 W14       30.27S WCI   8
MACOMB*        CLEAR     22  15  72 W18G24    30.33R WCI   8
JACKSONVILLE*  PTCLDY    26  15  64 W17G24    30.31R WCI  13
PITTSFIELD*    CLEAR     26  15  61 W12G21    30.34R WCI  16
$$

ILZ028>032-037-038-041>044-048-051>054-059>061-080500-
CENTRAL ILLINOIS

CITY           SKY/WX    TMP DP  RH WIND       PRES   REMARKS
PONTIAC        CLOUDY    26  19  75 W16G23    30.23S WCI  14
BLOOMINGTON    MOCLDY    24  16  71 W21G28    30.23R WCI   9
DECATUR        CLOUDY    27  18  69 W12       30.26R WCI  17
PEORIA         CLOUDY    24  12  60 NW13G23   30.27R WCI  12
LACON*         CLOUDY    24  14  64 W14G21    30.24S WCI  12
LINCOLN*       MOCLDY    28  17  64 W9G18     30.27S WCI  19
SPRINGFIELD    PTCLDY    28  18  66 W12       30.29R WCI  18
TAYLORVILLE    MOCLDY    28  18  66 W14       30.29R WCI  16
$$

ILZ033-039-045-046-055>057-062-063-080500-
EAST-CENTRAL ILLINOIS

CITY           SKY/WX    TMP DP  RH WIND       PRES   REMARKS
CHAMPAIGN      CLEAR     26  18  71 W15       30.23R WCI  14
RANTOUL*       PTCLDY    28  20  71 W17       30.22R WCI  16
MATTOON        CLEAR     27  18  69 W13       30.25R WCI  16
PARIS*         CLEAR     28  23  80 W14       30.25R WCI  17
$$

ILZ079-100>102-080500-
SOUTHWEST ILLINOIS

CITY           SKY/WX    TMP DP  RH WIND       PRES   REMARKS
ALTON          CLEAR     30  19  64 NW14      30.32R WCI  20
BELLEVILLE     MOCLDY    32  19  58 NW15      30.31R WCI  22
CAHOKIA*       CLOUDY    32  17  54 NW15      30.33R WCI  22
SPARTA*        CLOUDY    33  22  62 W8        30.31S WCI  27
$$

ILZ064>066-069>071-074>076-080>082-084>086-088>090-092>094-080500-
SOUTH-CENTRAL ILLINOIS

CITY           SKY/WX    TMP DP  RH WIND       PRES   REMARKS
CARBONDALE     CLOUDY    35  22  58 NW7       30.30R WCI  29
CAIRO*         CLOUDY    37  23  58 NW8       30.30R WCI  30
EFFINGHAM*     MOCLDY    31  24  73 W10       30.28S WCI  23
MARION           N/A     36  23  60 NW5       30.30R WCI  32
CENTRALIA*     CLOUDY    33  25  71 NW12      30.29R WCI  25
SALEM*         CLOUDY    33  22  63 W8        30.29R WCI  26
METROPOLIS*    CLOUDY    36  24  60 CALM      30.29R
$$

ILZ067-068-072-073-078-083-087-091-080500-
SOUTHEAST ILLINOIS

CITY           SKY/WX    TMP DP  RH WIND       PRES   REMARKS
LAWRENCEVILLE  CLOUDY    33  24  69 W9        30.26R WCI  25
FLORA*         PTCLDY    34  24  67 NW9       30.28R WCI  26
FAIRFIELD*     CLOUDY    33  24  69 NW3       30.27S
HARRISBURG*    CLOUDY    36  24  62 NW9       30.29R WCI  29
ROBINSON*      MOCLDY    32  24  72 NW10      30.26S WCI  23
CARMI*         CLOUDY    34  25  69 NW9       30.27S WCI  27
$$

ABBREVIATIONS USED IN REMARKS
   TC - TEMPERATURE IN CELSIUS
  WCI - WIND CHILL INDEX
   HX - HEAT INDEX
  VSB - VISIBILITY
$$




USA.gov is the U.S. government's official web portal to all federal, state and local government web resources and services.